Flag for U.S.A. Weather past 2 weeks in Albany, New York, U.S.A.

Now
22 °F

Mostly cloudy.


Feels Like: 8 °F
Forecast: 11 / 28 °F
Wind: 16 mph from Northwest

Location: Albany County Airport

Current Time: Mar 5, 2015 at 9:57:35 AM

Latest Report: Mar 5, 2015 at 8:51 AM


Visibility: 10 mi

Pressure: 30.15 "Hg

Humidity: 48%

Dew point: 5 °F

Location of AlbanyLocation

Historic Weather in Albany — Graph

°F

Albany temperature yesterday

Maximum temperature yesterday: 38 °F (at 2:51 PM)
Minimum temperature yesterday: 31 °F (at 12:51 AM)
Average temperature yesterday: 35 °F

Past Weeks' High & Low Weather Summary

 TemperatureHumidityPressure
High38 °F (Mar 4, 2:51 PM)88% (Feb 18, 11:51 PM)30.82 "Hg (Feb 18, 11:51 PM)
Low-8 °F (Feb 21, 4:51 AM)31% (Feb 24, 4:51 PM)29.66 "Hg (Feb 19, 6:51 AM)
Average17 °F59%30.17 "Hg
* Reported Feb 18 8:51 AM — Mar 5 8:51 AM, Albany, Weather by CustomWeather, © 2015

Note: Actual official high and low records may vary slightly from our data, if they occured in-between our weather recording intervals... More about our weather records

Advertising

Albany weather history for previous 24 hours

 ConditionsComfort  
Time TempWeatherWind HumidityBarometerVisibility
8:51 AM
Thu, Mar 5
22 °FMostly cloudy.16 mph48%30.15 "Hg10 mi
7:51 AM23 °FMostly cloudy.12 mph44%30.13 "Hg10 mi
6:51 AM24 °FMostly cloudy.15 mph46%30.10 "Hg10 mi
5:51 AM25 °FOvercast.17 mph48%30.08 "Hg10 mi
4:51 AM27 °FMostly cloudy.18 mph49%30.06 "Hg10 mi
3:51 AM28 °FMostly cloudy.14 mph51%30.01 "Hg10 mi
2:51 AM30 °FLight snow. Overcast.15 mph59%29.96 "Hg9 mi
1:51 AM32 °FMostly cloudy.9 mph64%29.95 "Hg10 mi
12:51 AM33 °FMostly cloudy.9 mph61%29.96 "Hg10 mi
11:51 PM
Wed, Mar 4
33 °FMostly cloudy.7 mph61%29.93 "Hg10 mi
10:51 PM34 °FMostly cloudy.14 mph61%29.95 "Hg10 mi
9:51 PM35 °FOvercast.13 mph59%29.93 "Hg10 mi
8:51 PM36 °FOvercast.9 mph59%29.90 "Hg10 mi
7:51 PM36 °FMostly cloudy.7 mph64%29.90 "Hg10 mi
6:51 PM36 °FMostly cloudy.6 mph67%29.86 "Hg10 mi
5:51 PM36 °FMostly cloudy.7 mph67%29.88 "Hg10 mi
4:51 PM37 °FMostly cloudy.7 mph65%29.84 "Hg10 mi
3:51 PM37 °FMostly cloudy.8 mph65%29.86 "Hg10 mi
2:51 PM38 °FCloudy.7 mph65%29.84 "Hg10 mi
1:55 PM37 °FMore clouds than sun.7 mph67%29.83 "Hg10 mi
12:51 PM37 °FMostly cloudy.12 mph67%29.85 "Hg10 mi
11:51 AM37 °FMostly cloudy.12 mph67%29.86 "Hg10 mi
10:51 AM36 °FMostly cloudy.7 mph70%29.85 "Hg10 mi
9:51 AM37 °FMore clouds than sun.6 mph67%29.84 "Hg10 mi
Weather by CustomWeather, © 2015

See weather overviewHow to use our weather pages